Overview Statistics Trail Chart Weather Telemetry Raw packets
 

This is the latest recevied weather packets stored in our database for station/object KR0L-13. If no packets are shown the sender has not sent any weather packets the latest 10 day(s).

<< 47 48 49 50 51 52 53 >>
Time Temp. Humidity Pressure Rain* Wind** Luminosity Snow
1787937922 30.56° C 46% 1020.6 hPa 0 mm - - -
1787937322 30.56° C 45% 1020.9 hPa 0 mm - - -
1787936122 30° C 47% 1021.2 hPa 0 mm - - -
1787935522 30° C 48% 1021.3 hPa 0 mm - - -
1787934922 29.44° C 49% 1021.4 hPa 0 mm - - -
1787934322 28.89° C 49% 1021.3 hPa 0 mm - - -
1787933722 28.33° C 51% 1021.3 hPa 0 mm - - -
1787933122 27.78° C 52% 1021.2 hPa 0 mm - - -
1787932522 27.78° C 52% 1021.2 hPa 0 mm - - -
1787931922 27.22° C 53% 1021.3 hPa 0 mm - - -
1787931322 27.22° C 54% 1021.3 hPa 0 mm - - -
1787930722 26.67° C 55% 1021.3 hPa 0 mm - - -
1787930122 26.11° C 57% 1021.3 hPa 0 mm - - -
1787929522 26.11° C 56% 1021.4 hPa 0 mm - - -
1787928922 25.56° C 61% 1021.5 hPa 0 mm - - -
1787928322 25° C 60% 1021.3 hPa 0 mm - - -
1787927722 24.44° C 61% 1021.2 hPa 0 mm - - -
1787927124 25° C 60% 1021.1 hPa 0 mm - - -
1787926522 24.44° C 63% 1021.1 hPa 0 mm - - -
1787925921 23.89° C 64% 1021.2 hPa 0 mm - - -
1787925322 23.33° C 66% 1021.1 hPa 0 mm - - -
1787924721 22.78° C 67% 1021.2 hPa 0 mm - - -
1787924122 22.22° C 70% 1021.1 hPa 0 mm - - -
1787923522 22.22° C 70% 1021 hPa 0 mm - - -
1787922922 21.67° C 70% 1021.1 hPa 0 mm - - -

* Rain latest hour (hover to see other rain measurements)
** Current wind speed in m/s (hover to see current wind gust speed)